Погода в Васильевке

Россия / Воронежская область     51°17′07″N   41°43′46″E
темп.,
°C
ветер,
м/с
пор.,
м/с
влажн.,
%
обл.,
%
осадки,
мм/ч
давл.,
гПа
погр.,
м
17 апреля, сб
сб1700:00+10зсз226554 0.0 101922
03:00+9ссв2269100 0.0 101816
06:00+10ююв226797 0.0 101839
09:00+13з346699 0.1 1018437
12:00+12ююз2379100 1.3 1018546
15:00+8зсз2382100 13.6 1019235
18:00+10зюз137675 0.0 1018467
21:00+7ююв22840 0.0 101911
18 апреля, вс
вс1800:00+6юз22864 0.0 102016
03:00+5з22865 0.0 102034
06:00+5зюз23855 0.0 102043
09:00+10юз23595 0.0 1020562
12:00+13юз344715 0.0 10201631
15:00+14з434397 0.0 10191821
18:00+12зсз235898 0.0 1019212
21:00+10ссв1159100 0.0 101911
19 апреля, пн
пн1900:00+10св1159100 0.0 101911
03:00+8всв116799 0.0 101810
06:00+8св2271100 0.0 101827
09:00+13всв235469 0.0 1017606
12:00+15юв1242100 0.0 10161880
15:00+15вюв224499 0.0 10161719
18:00+14вюв22588 0.0 101650
21:00+9всв35853 0.1 101787
20 апреля, вт
вт2000:00+8в379057 0.0 1018161
03:00+8в41093100 0.1 1017416
06:00+8в5119197 0.3 1017577
09:00+8в71587100 0.4 1016678
12:00+7в81784100 0.1 1015759
15:00+8вюв101988100 1.9 10121058
18:00+8вюв112389100 6.0 10091182
21:00+9вюв132690100 8.9 10071233
21 апреля, ср
ср2100:00+10юв122186100 1.6 10071173
03:00+11ююв8169179 2.0 10061177
06:00+10ююв81487100 1.2 10081134
09:00+9ю91586100 1.5 10101155
12:00+9ююз7118599 0.3 1013999
15:00+13ююз696589 0.5 10151612
18:00+12ююз257544 0.4 1017181
21:00+9ююз3687100 0.8 1019138